Regional Weather Roundup
Issued by NWS

Home | Current Version | Previous Version | Text Only | Print | Product List | Glossary Off
Versions: 1 2 3 4 5 6 7 8 9 10 11 12 13 14 15 16 17 18 19 20 21 22 23 24 25 26 27 28 29 30 31 32 33 34 35 36 37 38 39 40 41 42 43 44 45 46 47 48 49 50

000
ASUS43 KOAX 312210
RWRNE

WEATHER ROUNDUP FOR NEBRASKA
NATIONAL WEATHER SERVICE OMAHA NE
400 PM CST SAT JAN 31 2015

NOTES: SATELLITE DATA IS BEING USED TO AUGMENT CLOUD COVER ABOVE
       12000 FEET.
       "FAIR" INDICATES FEW OR NO CLOUDS BELOW 12,000 FEET WITH NO
       SIGNIFICANT WEATHER AND/OR OBSTRUCTIONS TO VISIBILITY.

  * THESE STATIONS DO NOT REPORT WEATHER SUCH AS RAIN...SNOW OR FOG.

NEZ001>004-019>022-054>056-312300-
NEBRASKA PANHANDLE

CITY           SKY/WX    TMP DP  RH WIND       PRES   REMARKS
SCOTTSBLUFF    LGT SNOW  32  30  92 N7        29.85S VSB 1   WCI  26
ALLIANCE       SNOW      30  28  92 NE8       29.85R VSB 1/4 WCI  22
CHADRON        CLOUDY    28  25  88 N18       29.93R FOG     WCI  15
KIMBALL        LGT SNOW  32  31  96 N8        29.79S WCI  25
SIDNEY         LGT SNOW  32  29  88 N10       29.82S FOG     WCI  24
$$

NEZ057>060-069>072-079>082-312300-
SOUTHWEST NEBRASKA

CITY           SKY/WX    TMP DP  RH WIND       PRES   REMARKS
NORTH PLATTE   LGT SNOW  33  32  96 E3        29.84S FOG
IMPERIAL       LGT SNOW  34  32  92 NE7       29.81F FOG     WCI  28
LEXINGTON      LGT SNOW  33  32  96 E6        29.85F WCI  28
MCCOOK         FOG       36  34  92 NE9       29.82F VSB 1   WCI  29
OGALLALA       DRIZZLE   34  34  98 NE6       29.83F WCI  29
$$

NEZ005>010-023>029-035>040-094-312300-
NORTH CENTRAL NEBRASKA

CITY           SKY/WX    TMP DP  RH WIND       PRES   REMARKS
VALENTINE      FRZ RAIN  24  23  96 NE14      29.95S FOG     WCI  12
AINSWORTH      CLOUDY    25  25  98 NE14      29.94S FOG     WCI  13
BROKEN BOW     LGT SNOW  34  32  92 E6        29.86S FOG     WCI  29
O`NEILL        LGT SNOW  29  28  96 NE16      29.95F WCI  18
ORD            LGT SNOW  33  31  92 E6        29.88F FOG     WCI  28
THEDFORD       LGT SNOW  28  27  97 NE12      29.89F VSB 1   WCI  18
$$

NEZ041-046>049-061>064-073>077-083>087-312300-
SOUTH CENTRAL NEBRASKA

CITY           SKY/WX    TMP DP  RH WIND       PRES   REMARKS
GRAND ISLAND   LGT SNOW  32  32 100 SE6       29.90F VSB 3/4 WCI  26
AURORA         LGT SNOW  33  33 100 SE7       29.90F WCI  27
HASTINGS       LGT SNOW  32  30  92 SE6       29.88F VSB 3/4 WCI  26
HEBRON         LGT SNOW  33  32  95 SE8       29.91F WCI  26
HOLDREGE       LGT SNOW  32  32  99 E3        29.85F
KEARNEY *      CLOUDY    32  30  93 E6        29.87F WCI  26
YORK           LGT SNOW  32  32 100 SE7       29.92F VSB 1   WCI  26
$$

NEZ011>018-030>034-042>045-312300-
NORTHEAST NEBRASKA

CITY           SKY/WX    TMP DP  RH WIND       PRES   REMARKS
NORFOLK        LGT SNOW  35  33  92 SE5       29.94F FOG     WCI  31
ALBION         LGT SNOW  34  32  91 SE6       29.92F WCI  29
BLAIR          LGT SNOW  35  33  92 SE7       29.97F WCI  29
COLUMBUS *     CLOUDY    34  28  80 SE6       29.95F WCI  29
FREMONT        LGT RAIN  35  34  98 SE8       29.98F WCI  28
TEKAMAH        LGT SNOW  33  32  96 SE6       30.00F FOG     WCI  28
WAYNE          LGT RAIN  36  34  92 SE3       29.97F
$$

NEZ050>053-065>068-078-088>093-312300-
SOUTHEAST NEBRASKA

CITY           SKY/WX    TMP DP  RH WIND       PRES   REMARKS
LINCOLN        LGT SNOW  33  32  96 SE5       29.97F VSB 3/4 WCI  29
OMAHA EPPLEY   LGT SNOW  35  33  92 SE13      30.00F FOG     WCI  26
BEATRICE       LGT SNOW  33  32  98 SE9       29.94F WCI  25
FALLS CITY     LGT RAIN  35  35 100 SE10      30.01F FOG     WCI  27
NEBRASKA CITY  LGT SNOW  33  33 100 SE9       29.98F VSB 1   WCI  25
PLATTSMOUTH    LGT SNOW  32  31  97 SE9       29.98F WCI  24
$$

NEZ044-045-051>053-067-312300-
OMAHA AREA

CITY           SKY/WX    TMP DP  RH WIND       PRES   REMARKS
OMAHA EPPLEY   LGT SNOW  35  33  92 SE13      30.00F FOG     WCI  26
BLAIR          LGT SNOW  35  33  92 SE7       29.97F WCI  29
FREMONT        LGT RAIN  35  34  98 SE8       29.98F WCI  28
MILLARD        LGT SNOW  34  32  94 SE10      29.98F WCI  26
OFFUTT AFB     LGT SNOW  32  32 100 E8        29.99F FOG     WCI  25
PLATTSMOUTH    LGT SNOW  32  31  97 SE9       29.98F WCI  24
WAHOO          LGT SNOW  33  32  94 SE6       29.97F WCI  28
$$



USA.gov is the U.S. government's official web portal to all federal, state and local government web resources and services.